Overview Statistics Trail Chart Weather Telemetry Raw packets
 

This is the latest recevied weather packets stored in our database for station/object KQ7A. If no packets are shown the sender has not sent any weather packets the latest 10 day(s).

<< 68 69 70 71 72 73 74 >>
Time Temp. Humidity Pressure Rain* Wind** Luminosity Snow
1788200239 25° C 32% 1016.9 hPa 0 mm - 816 W/m² -
1788199934 25° C 32% 1017 hPa 0 mm - 825 W/m² -
1788199629 24.44° C 35% 1017 hPa 0 mm - 834 W/m² -
1788199324 24.44° C 36% 1017.1 hPa 0 mm - 819 W/m² -
1788199023 24.44° C 33% 1017.1 hPa 0 mm - 801 W/m² -
1788198720 24.44° C 37% 1017.1 hPa 0 mm - 789 W/m² -
1788198420 23.33° C 35% 1017.1 hPa 0 mm - 780 W/m² -
1788198115 23.89° C 36% 1017.5 hPa 0 mm - 771 W/m² -
1788197814 23.89° C 37% 1017.1 hPa 0 mm - 755 W/m² -
1788197510 22.78° C 39% 1017.4 hPa 0 mm - 739 W/m² -
1788197209 22.78° C 40% 1017.4 hPa 0 mm - 709 W/m² -
1788196905 22.78° C 40% 1017.6 hPa 0 mm - 704 W/m² -
1788196599 22.78° C 41% 1017.3 hPa 0 mm - 697 W/m² -
1788196297 22.22° C 41% 1017.4 hPa 0 mm - 675 W/m² -
1788195993 21.67° C 41% 1017.5 hPa 0 mm - 644 W/m² -
1788195690 21.11° C 41% 1017.5 hPa 0 mm - 626 W/m² -
1788195385 21.11° C 43% 1017.6 hPa 0 mm - 615 W/m² -
1788195082 21.11° C 41% 1017.3 hPa 0 mm - 579 W/m² -
1788194777 20.56° C 42% 1017.6 hPa 0 mm - 554 W/m² -
1788194473 20.56° C 43% 1017.5 hPa 0 mm - 548 W/m² -
1788194168 20.56° C 45% 1017.5 hPa 0 mm - 536 W/m² -
1788193863 20° C 46% 1017.7 hPa 0 mm - 503 W/m² -
1788193563 19.44° C 46% 1017.8 hPa 0 mm - 452 W/m² -
1788193261 18.89° C 47% 1017.6 hPa 0 mm - 414 W/m² -
1788192956 18.33° C 51% 1017.8 hPa 0 mm - 397 W/m² -

* Rain latest hour (hover to see other rain measurements)
** Current wind speed in m/s (hover to see current wind gust speed)